Regional Weather Roundup
Issued by NWS

Home | Current Version | Previous Version | Graphics & Text | Print | Product List | Glossary On
Versions: 1 2 3 4 5 6 7 8 9 10 11 12 13 14 15 16 17 18 19 20 21 22 23 24 25 26 27 28 29 30 31 32 33 34 35 36 37 38 39 40 41 42 43 44 45 46 47 48 49 50
000
ASUS45 KCYS 271610
RWRWY

WYOMING REGIONAL WEATHER ROUNDUP
NATIONAL WEATHER SERVICE CHEYENNE WY
1000 AM MDT MON JUL 27 2015

NOTE:  "FAIR" INDICATES FEW OR NO CLOUDS BELOW 12,000 FEET
WITH NO SIGNIFICANT WEATHER AND/OR OBSTRUCTIONS TO VISIBILITY.

WYZ001-271700-
YELLOWSTONE NATIONAL PARK

CITY           SKY/WX    TMP DP  RH WIND       PRES   REMARKS
LK YELLOWSTONE   N/A     58  45  62 VRB3      30.00F
W YELLOWSTONE  NOT AVBL

$$
WYZ002>013-054>058-071-098>099-271700-
NORTHERN WYOMING

CITY           SKY/WX    TMP DP  RH WIND       PRES   REMARKS
JACKSON        FAIR      59  41  51 W3        29.93F
CODY           FAIR      64  52  63 NE14      29.87F
GREYBULL       FAIR      74  46  36 N3        29.79R
WORLAND        FAIR      74  48  39 NW9       29.81S
SHERIDAN       FAIR      70  53  54 NW15      29.82F
BUFFALO        FAIR      69  49  48 N12       29.85F
GILLETTE       FAIR      75  49  39 NW7       29.81R
HULETT         FAIR      81  52  36 SW13      29.81S
NEWCASTLE      FAIR      81  52  36 S12       29.85R

$$
WYZ014>020-022>026-101>103-271700-
CENTRAL WYOMING

CITY           SKY/WX    TMP DP  RH WIND       PRES   REMARKS
BIG PINEY      FAIR      69  33  26 S10       29.98F
PINEDALE       FAIR      70  28  21 S14G20    30.00F
DUBOIS         FAIR      64  30  27 CALM      29.95F
LANDER         FAIR      81  36  19 S14       29.85F
RIVERTON       FAIR      79  43  27 SW15G23   29.87S
CASPER         FAIR      83  37  19 SW20G30   29.87F
DOUGLAS        FAIR      80  49  33 SE7       29.89F

$$
WYZ021-027>030-104>119-271700-
SOUTHERN WYOMING

CITY           SKY/WX    TMP DP  RH WIND       PRES   REMARKS
EVANSTON       FAIR      73  24  16 SW23G36   30.00F
KEMMERER       FAIR      72  21  15 SW22G30   30.01S
FORT BRIDGER   SUNNY     77  23  13 SW24G32   30.03S
ROCK SPRINGS   FAIR      76  38  25 S18G24    29.99F
DIXON          FAIR      81  42  25 S21G26    30.05F
RAWLINS        FAIR      77  41  27 S23G31    30.03F
SARATOGA       FAIR      77  37  24 S12G20    30.07F
LARAMIE        FAIR      76  43  30 MISG      30.08F
CHEYENNE       FAIR      83  45  26 NW8       29.99F
TORRINGTON     FAIR      77  60  55 VRB3      29.84F
PINE BLUFFS    FAIR      77  59  53 SW6       29.94F

$$



USA.gov is the U.S. government's official web portal to all federal, state and local government web resources and services.